Location: *
(45.1584°N, 3.5798°E)
Time: 03:43:26
(UTC+00:00)

Daily predictions for brighter satellites

Satellite Brightness Start Highest point End
(mag) Time Altitude Azimuth Time Altitude Azimuth Time Altitude Azimuth
Cosmos 2360 Rocket 4.2 02:15:11 23° NE 02:15:11 23° NE 02:17:17 10° NNE
USA 267 3.8 02:25:16 10° NE 02:30:09 52° ENE 02:30:09 52° ENE
COSMOS 2455 4.0 02:36:11 40° ENE 02:36:11 40° ENE 02:40:10 10° NE
Cosmos 2278 Rocket 4.1 02:46:12 10° N 02:51:02 27° NE 02:55:50 10° ESE
ADEOS II 4.1 02:47:30 10° N 02:49:01 19° N 02:49:01 19° N
Cosmos 2333 Rocket 3.1 02:55:19 44° E 02:55:19 44° E 03:00:25 10° NE
USA 234 3.3 02:59:15 10° ESE 03:05:47 75° NE 03:06:33 67° NNW
SL-16 R/B 4.1 03:17:01 19° NNW 03:17:01 19° NNW 03:19:14 10° N
Cosmos 2322 4.1 03:19:20 55° N 03:19:20 55° N 03:23:53 10° NNE
ATLAS 3B R/B 3.7 03:15:12 15° NNW 03:20:25 41° NE 03:26:48 10° ESE
Cosmos 2219 Rocket 2.2 03:23:39 73° ESE 03:23:45 74° ESE 03:29:21 10° NNE
IDEFIX/ARIANE 42P 2.9 03:20:47 10° NNE 03:26:00 62° E 03:27:07 50° SSE
Cosmos 2237 Rocket 3.7 03:27:24 10° SSE 03:32:25 35° ESE 03:37:31 10° NE
CENTAUR R/B 3.7 03:25:19 11° NNW 03:32:58 57° NE 03:41:27 10° ESE
Cosmos 2251 Rocket 3.9 03:39:56 50° NNW 03:39:56 50° NNW 03:44:18 10° NNE
NOSS 2-2 (C) 4.3 03:41:45 42° NNE 03:41:45 42° NNE 03:44:39 10° NE
ATLAS 2AS CENTAUR R/B 3.3 03:36:56 28° SSW 03:41:34 69° ESE 03:49:34 10° NE
BREEZE-M R/B 3.6 03:43:11 65° NW 03:43:46 70° NNW 03:52:48 10° ENE
COSMOS 2428 2.5 03:45:12 67° WSW 03:45:52 77° WNW 03:51:35 10° NNE
USA 238 DEB 3.7 03:42:52 36° NW 03:46:01 69° WSW 03:53:22 10° SSE
Cosmos 2322 Rocket 4.0 03:47:28 16° NNW 03:47:28 16° NNW 03:49:50 10° N
USA 238 3.7 03:42:55 36° NW 03:46:07 70° WSW 03:53:28 10° SSE
Cosmos 1980 4.5 03:44:35 14° S 03:49:15 50° ESE 03:54:42 10° NE
Cosmos 2360 Rocket 3.5 03:56:59 25° NW 03:56:59 25° NW 04:00:48 10° N
Cosmos 1470 3.3 03:54:27 10° N 03:58:21 59° E 04:02:11 10° SSE
Cosmos 1707 4.2 03:55:22 10° SSE 03:59:00 38° E 04:02:39 10° NNE
Cosmos 1842 4.3 04:02:09 33° NNW 04:02:09 33° NNW 04:04:30 10° N
Cosmos 1709 Rocket 4.2 04:02:05 44° WSW 04:03:08 48° WNW 04:09:16 10° N
Cosmos 2184 Rocket 4.1 04:00:32 10° S 04:06:42 76° E 04:12:59 10° N
Cosmos 1190 Rocket 4.5 04:05:28 10° S 04:10:40 61° ESE 04:15:54 10° NNE
ERBS 2.3 04:11:12 76° NE 04:11:12 76° NE 04:14:22 10° NE
NOSS 3-2 (A) 4.1 04:05:40 18° NW 04:11:33 59° WSW 04:19:46 10° SSE
H-2A R/B 2.3 04:07:25 10° N 04:11:34 78° WNW 04:13:27 33° SSW
Cosmos 407 Rocket 3.6 04:07:28 10° S 04:12:35 71° ESE 04:17:42 10° NNE
USA 267 3.7 04:08:27 10° NE 04:14:37 46° NNW 04:17:30 29° WNW
SJ-6F 4.5 04:10:39 10° NNE 04:14:49 79° ESE 04:18:57 10° S
NOSS 2-2 (E) 4.2 04:16:35 34° NW 04:16:35 34° NW 04:20:24 10° NNE
COSMO-SKYMED 1 4.3 04:13:40 10° SE 04:17:34 33° ENE 04:21:28 10° N
ADEOS 3.8 04:14:09 10° N 04:19:09 47° WNW 04:21:05 32° WSW
CZ-2C R/B 2.6 04:15:05 10° NNE 04:20:20 82° ESE 04:25:29 10° SSW
COSMOS 2455 3.7 04:19:21 29° WNW 04:20:32 31° NW 04:25:52 10° NNE
SL-16 R/B 3.9 04:19:47 10° SSE 04:24:50 35° ESE 04:29:55 10° NE
USA 32 4.0 04:23:34 10° SSW 04:28:43 59° W 04:33:55 10° N
Meteor 1-4 Rocket 3.1 04:25:42 10° S 04:29:09 57° E 04:32:35 10° NNE
Cosmos 1726 Rocket 4.2 04:26:44 10° N 04:31:01 56° E 04:35:14 10° SSE
NOSS 0 Rocket 3.9 04:26:28 14° SW 04:31:47 71° WNW 04:38:00 10° NNE
Cosmos 292 Rocket 3.9 04:29:20 10° NNW 04:33:55 48° WSW 04:38:31 10° S
PSLV R/B 4.4 04:30:46 10° N 04:34:17 28° WNW 04:34:17 28° WNW
NOSS 3-2 (C) 4.1 04:27:21 10° NW 04:34:51 62° WSW 04:43:08 10° SSE
Cosmos 2228 3.4 04:30:41 10° N 04:34:56 66° E 04:39:09 10° SSE
Cosmos 2278 Rocket 2.3 04:29:55 10° NW 04:35:27 55° WSW 04:40:57 10° S
Cosmos 1025 Rocket 3.6 04:35:00 32° W 04:35:35 34° WNW 04:39:30 10° N
Cosmos 44 2.9 04:33:09 21° NW 04:35:59 63° WSW 04:40:13 10° SSE
Okean O Rocket 3.8 04:34:57 10° NE 04:38:46 28° E 04:42:33 10° SSE
Cosmos 2333 Rocket 3.0 04:37:22 25° W 04:39:26 32° NW 04:44:33 10° N
Cosmos 2074 Rocket 4.0 04:33:49 10° SSW 04:39:58 60° WNW 04:46:08 10° N
Cosmos 921 Rocket 3.7 04:42:56 22° WNW 04:44:40 29° W 04:48:20 10° SSW
Cosmos 2058 Rocket 3.8 04:43:07 10° N 04:47:27 56° ENE 04:51:48 10° SSE
Cosmos 1954 Rocket 4.2 04:43:49 10° SSW 04:49:02 74° ESE 04:54:15 10° NNE
USA 234 3.8 04:43:12 10° SSE 04:49:07 36° SW 04:53:54 15° WNW
CZ-4B R/B 2.8 04:45:44 10° N 04:49:45 60° WNW 04:53:33 10° SSW
Cosmos 389 Rocket 2.6 04:47:58 10° SSW 04:51:16 46° WNW 04:54:36 10° N
NOSS 3-4 (A) 3.4 04:46:06 11° SW 04:51:56 70° NW 04:58:21 10° NE
NOSS 3-4 (C) 3.4 04:46:05 10° SW 04:52:01 71° NW 04:58:26 10° NE
Cosmos 1437 Rocket 3.7 04:51:03 10° S 04:54:43 49° E 04:58:23 10° NNE
PSLV R/B 3.5 04:54:26 10° N 04:58:10 81° WNW 05:01:51 10° SSW
Cosmos 1140 Rocket 3.4 04:53:34 10° SSW 04:58:44 69° WNW 05:03:55 10° NNE
PAYLOAD A 4.5 04:56:36 10° N 05:00:58 35° WNW 05:05:27 10° SW
Cosmos 1953 2.7 04:58:43 10° NNW 05:02:32 41° W 05:06:17 10° SSW
Cosmos 614 Rocket 4.3 04:58:43 10° SW 05:03:41 44° WNW 05:08:41 10° N
IDEFIX/ARIANE 42P 3.9 05:01:22 10° NNW 05:05:07 20° WNW 05:07:54 14° W
SKYMED 2 3.5 05:01:08 10° S 05:05:28 79° WSW 05:09:50 10° NNW
Cosmos 2219 Rocket 3.5 05:05:25 15° W 05:08:19 21° NW 05:12:32 10° N
ATLAS 3B R/B 2.9 05:04:48 10° NW 05:11:16 52° WSW 05:17:53 10° SSE
Helios 1A Rocket 3.2 05:09:43 10° NNE 05:13:53 75° ESE 05:18:02 10° S
Cosmos 1892 Rocket 3.5 05:10:03 10° SSW 05:14:27 64° W 05:18:51 10° N
Cosmos 2237 Rocket 2.7 05:11:05 10° SW 05:16:24 40° NW 05:21:45 10° NNE
BREEZE-M DEB (TANK) 3.1 05:15:00 13° WNW 05:16:43 32° N 05:19:20 10° ENE
Cosmos 1356 3.6 05:13:58 10° NNW 05:17:19 48° W 05:20:39 10° S
Meteor PRIRODA 4.1 05:13:57 10° N 05:17:29 39° WNW 05:20:58 10° SW
CZ-4B DEB 4.2 05:12:00 10° NNE 05:17:30 85° WNW 05:22:58 10° SSW
GP-B 3.2 05:14:38 10° SSW 05:18:59 53° W 05:23:21 10° N
PAYLOAD B 4.3 05:17:08 10° NNE 05:22:44 86° WNW 05:28:16 10° SSW
Cosmos 1908 3.2 05:19:12 10° N 05:23:04 86° E 05:26:53 10° S
CENTAUR R/B 3.5 05:16:07 10° NW 05:23:46 46° WSW 05:31:53 10° S
BREEZE-M DEB (TANK) 2.8 05:22:09 12° W 05:24:02 32° SSW 05:26:31 10° SE
In-Cosmos 22 4.1 05:18:55 10° SSW 05:24:11 62° WNW 05:29:37 10° N
Meteor 1-31 Rocket 3.9 05:22:36 10° NNW 05:25:35 22° WNW 05:28:33 10° WSW
MOS 1-B 4.4 05:20:08 10° N 05:25:54 65° WNW 05:31:39 10° SSW
Cosmos 1606 Rocket 4.3 05:23:36 10° NNW 05:27:19 29° W 05:31:02 10° SSW
RESURS DK-1 2.4 05:25:33 10° SW 05:29:39 63° WNW 05:33:47 10° NNE
COSMOS 2428 4.3 05:27:42 10° W 05:31:08 16° NW 05:34:35 10° N
Cosmos 2369 Rocket 3.4 05:26:42 10° NNW 05:32:02 43° ENE 05:37:20 10° SE
ATLAS 2AS CENTAUR R/B 3.6 05:25:42 10° WSW 05:33:10 40° NW 05:40:37 10° NNE
Gblst 52 Del rocket 4.4 05:28:35 10° WNW 05:34:09 80° NNE 05:40:16 10° ESE
Meteor 2-10 4.2 05:29:33 10° NNW 05:34:32 50° W 05:39:40 10° SSW
Cosmos 1707 4.3 05:32:26 10° WSW 05:35:03 17° WNW 05:37:41 10° NNW
SJ-12 4.1 05:31:24 10° N 05:35:23 51° WNW 05:39:22 10° SSW
NOAA 6 4.1 05:31:45 10° NNE 05:36:58 88° WNW 05:42:08 10° SSW
CZ-4B R/B 3.1 05:32:38 10° NNE 05:37:58 85° WNW 05:43:15 10° SSW
SeaSat 1 3.5 05:33:12 10° NE 05:38:02 52° ESE 05:42:50 10° S
Cosmos 2218 Rocket 4.2 05:32:51 10° S 05:39:14 85° E 05:45:36 10° N
